TimeEDT,TemperatureF,Dew PointF,Humidity,Sea Level PressureIn,VisibilityMPH,Wind Direction,Wind SpeedMPH,Gust SpeedMPH,PrecipitationIn,Events,Conditions,WindDirDegrees,DateUTC
12:54 AM,79.0,75.9,90,30.07,10.0,South,4.6,-,N/A,,Clear,190,2013-08-09 04:54:00
1:54 AM,79.0,75.9,90,30.06,10.0,South,4.6,-,N/A,,Clear,190,2013-08-09 05:54:00
2:54 AM,78.1,75.9,93,30.05,9.0,South,4.6,-,N/A,,Clear,190,2013-08-09 06:54:00
3:54 AM,78.1,75.9,93,30.05,8.0,SSW,3.5,-,N/A,,Clear,200,2013-08-09 07:54:00
4:54 AM,78.1,75.9,93,30.05,9.0,SSW,3.5,-,N/A,,Clear,200,2013-08-09 08:54:00
5:54 AM,77.0,75.0,94,30.07,8.0,SSW,3.5,-,N/A,,Clear,200,2013-08-09 09:54:00
6:54 AM,78.1,75.0,90,30.09,9.0,SW,3.5,-,N/A,,Clear,220,2013-08-09 10:54:00
7:34 AM,78.8,75.2,89,30.09,10.0,WSW,4.6,-,N/A,,Scattered Clouds,250,2013-08-09 11:34:00
7:50 AM,78.8,75.2,89,30.09,10.0,SW,5.8,-,N/A,,Mostly Cloudy,230,2013-08-09 11:50:00
7:51 AM,79.0,75.9,90,30.09,10.0,SW,4.6,-,N/A,,Mostly Cloudy,230,2013-08-09 11:51:00
8:37 AM,82.4,77.0,84,30.09,10.0,WSW,8.1,-,N/A,,Scattered Clouds,240,2013-08-09 12:37:00
8:54 AM,82.0,77.0,85,30.09,10.0,WSW,6.9,-,N/A,,Mostly Cloudy,250,2013-08-09 12:54:00
9:42 AM,84.2,75.2,74,30.09,10.0,WSW,10.4,-,N/A,,Scattered Clouds,240,2013-08-09 13:42:00
9:50 AM,84.2,75.2,74,30.08,10.0,WSW,8.1,-,N/A,,Mostly Cloudy,240,2013-08-09 13:50:00
9:54 AM,84.9,77.0,77,30.09,10.0,WSW,6.9,-,N/A,,Mostly Cloudy,240,2013-08-09 13:54:00
10:54 AM,87.1,75.0,67,30.10,10.0,WSW,10.4,-,N/A,,Scattered Clouds,250,2013-08-09 14:54:00
11:54 AM,88.0,75.0,65,30.09,10.0,WSW,10.4,-,N/A,,Scattered Clouds,240,2013-08-09 15:54:00
12:54 PM,91.0,75.0,59,30.08,10.0,WSW,10.4,-,N/A,,Scattered Clouds,240,2013-08-09 16:54:00
1:54 PM,90.0,75.0,61,30.07,10.0,WSW,8.1,-,N/A,,Mostly Cloudy,240,2013-08-09 17:54:00
2:54 PM,91.9,75.0,58,30.06,10.0,SW,9.2,-,0.00,,Clear,220,2013-08-09 18:54:00
3:54 PM,88.0,75.9,67,30.05,10.0,South,11.5,-,N/A,,Mostly Cloudy,170,2013-08-09 19:54:00
4:54 PM,91.0,77.0,63,30.03,10.0,SSW,10.4,17.3,N/A,,Partly Cloudy,210,2013-08-09 20:54:00
5:54 PM,90.0,77.0,65,30.03,10.0,South,12.7,19.6,N/A,,Clear,190,2013-08-09 21:54:00
6:54 PM,87.1,75.0,67,30.03,10.0,SSW,11.5,18.4,N/A,,Clear,200,2013-08-09 22:54:00
7:54 PM,84.0,75.0,74,30.04,10.0,SSW,10.4,18.4,N/A,,Clear,200,2013-08-09 23:54:00
8:29 PM,82.4,75.2,79,30.04,10.0,SSW,9.2,-,N/A,,Partly Cloudy,200,2013-08-10 00:29:00
8:54 PM,82.0,75.0,79,30.05,10.0,South,8.1,-,N/A,,Partly Cloudy,190,2013-08-10 00:54:00
9:54 PM,81.0,75.0,82,30.06,10.0,SSW,10.4,17.3,N/A,,Clear,210,2013-08-10 01:54:00
10:54 PM,80.1,75.0,85,30.08,10.0,SW,5.8,-,N/A,,Clear,220,2013-08-10 02:54:00
11:54 PM,79.0,75.0,88,30.09,10.0,SW,5.8,-,N/A,,Clear,220,2013-08-10 03:54:00